Location: Castle
(40.7167°S, 175.9500°E)
Time: 18:03:21
(UTC+00:00)

RS-15 - Visible Passes

Search period start: 03 December 2024 00:00
Search period end: 13 December 2024 00:00
Orbit: 1899 x 2145 km, 64.8° (Epoch: 02 December)

Date Brightness Start Highest point End Pass type
(mag) Time Alt. Az. Time Alt. Az. Time Alt. Az.
03 Dec 10.2 09:24:04 10° WSW 09:33:02 23° S 09:42:09 10° SE visible
03 Dec 9.7 11:40:49 10° SSW 11:51:14 30° SSE 12:01:34 10° E visible
03 Dec 8.3 13:53:46 10° SSW 14:06:13 76° SE 14:18:20 10° NE visible
03 Dec 8.7 16:07:29 10° SW 16:17:34 32° WNW 16:27:28 10° NNW visible
04 Dec 10.2 08:46:34 10° WSW 08:55:49 24° SSW 09:05:17 10° SE visible
04 Dec 9.8 11:04:21 10° SSW 11:14:12 26° SSE 11:24:01 10° ESE visible
04 Dec 8.6 13:17:40 10° SSW 13:29:58 63° SE 13:41:57 10° NE visible
04 Dec 8.5 15:30:51 10° SW 15:41:57 42° WNW 15:52:48 10° N visible
05 Dec 10.1 08:09:01 10° WSW 08:18:42 27° SSW 08:28:40 10° SSE visible
05 Dec 10.0 10:27:43 10° SW 10:37:04 24° SSE 10:46:26 10° ESE visible
05 Dec 8.8 12:41:34 10° SSW 12:53:33 51° SE 13:05:16 10° ENE visible
05 Dec 8.2 14:54:27 10° SW 15:06:13 55° WNW 15:17:42 10° N visible
06 Dec 10.1 09:50:49 10° SW 09:59:49 22° S 10:08:53 10° SE visible
06 Dec 9.1 12:05:25 10° SSW 12:17:00 43° SE 12:28:21 10° ENE visible
06 Dec 8.1 14:18:10 10° SW 14:30:23 69° WNW 14:42:15 10° NNE visible
07 Dec 10.1 09:13:41 10° SW 09:22:33 22° S 09:31:30 10° SE visible
07 Dec 9.4 11:29:13 10° SSW 11:40:17 36° SE 11:51:12 10° E visible
07 Dec 8.1 13:41:59 10° SSW 13:54:24 86° WNW 14:06:29 10° NNE visible
07 Dec 9.0 15:56:42 10° SW 16:05:01 22° W 16:13:14 10° NW visible
08 Dec 10.1 08:36:20 10° SW 08:45:16 22° S 08:54:21 10° SE visible
08 Dec 9.6 10:52:55 10° SSW 11:03:25 31° SSE 11:13:49 10° E visible
08 Dec 8.2 13:05:51 10° SSW 13:18:18 79° ESE 13:30:25 10° NE visible
08 Dec 8.8 15:19:39 10° SW 15:29:33 30° WNW 15:39:16 10° NNW visible
09 Dec 10.1 07:58:50 10° WSW 08:08:02 24° SSW 08:17:27 10° SE visible
09 Dec 9.7 10:16:29 10° SSW 10:26:25 27° SSE 10:36:18 10° ESE visible
09 Dec 8.5 12:29:44 10° SSW 12:42:03 64° SE 12:54:03 10° NE visible
09 Dec 8.5 14:42:59 10° SW 14:53:57 40° WNW 15:04:40 10° N visible
10 Dec 9.9 09:39:51 10° SW 09:49:17 24° SSE 09:58:42 10° ESE visible
10 Dec 8.7 11:53:38 10° SSW 12:05:40 53° SE 12:17:26 10° ENE visible
10 Dec 8.3 14:06:33 10° SW 14:18:15 53° WNW 14:28:08 15° N visible
11 Dec 10.0 09:03:00 10° SW 09:12:04 23° S 09:21:09 10° ESE visible
11 Dec 9.0 11:17:29 10° SSW 11:29:08 44° SE 11:40:33 10° ENE visible
11 Dec 8.1 13:30:15 10° SW 13:42:25 67° WNW 13:51:32 20° N visible
11 Dec 9.3 15:47:05 10° WSW 15:52:20 14° W 15:57:32 10° WNW visible
12 Dec 10.0 08:25:55 10° SW 08:34:47 22° S 08:43:44 10° SE visible
12 Dec 9.2 10:41:17 10° SSW 10:52:27 37° SE 11:03:26 10° E visible
12 Dec 8.1 12:54:03 10° SW 13:06:28 83° WNW 13:15:21 22° NNE visible
12 Dec 9.1 15:08:58 10° SW 15:16:59 21° W 15:22:58 14° NW visible
